Time,TemperatureF,DewpointF,PressureIn,WindDirection,WindDirectionDegrees,WindSpeedMPH,WindSpeedGustMPH,Humidity,HourlyPrecipIn,Conditions,Clouds,dailyrainin,SoftwareType,DateUTC
2013-06-24 00:04:00,65.2,62.2,29.89,West,279,0.0,0.0,90,0.00,,,0.00,VWS V12.07,2013-06-24 05:04:00,
2013-06-24 00:09:00,65.1,62.1,29.89,West,279,0.0,0.0,90,0.00,,,0.00,VWS V12.07,2013-06-24 05:09:00,
2013-06-24 00:14:00,65.0,62.0,29.89,West,279,0.0,0.0,90,0.00,,,0.00,VWS V12.07,2013-06-24 05:14:00,
2013-06-24 00:19:00,65.0,62.3,29.89,West,279,0.0,0.0,91,0.00,,,0.00,VWS V12.07,2013-06-24 05:19:00,
2013-06-24 00:24:00,64.9,62.2,29.90,West,279,0.0,0.0,91,0.00,,,0.00,VWS V12.07,2013-06-24 05:24:00,
2013-06-24 00:34:00,64.8,62.1,29.90,West,279,0.0,0.0,91,0.00,,,0.00,VWS V12.07,2013-06-24 05:34:00,
2013-06-24 00:44:00,64.7,62.0,29.89,West,279,0.0,0.0,91,0.00,,,0.00,VWS V12.07,2013-06-24 05:44:00,
2013-06-24 00:54:00,64.5,61.8,29.89,West,279,0.0,0.0,91,0.00,,,0.00,VWS V12.07,2013-06-24 05:54:00,
2013-06-24 01:04:00,64.4,62.0,29.90,West,279,0.0,0.0,92,0.00,,,0.00,VWS V12.07,2013-06-24 06:04:00,
2013-06-24 01:19:00,64.1,61.7,29.89,West,279,0.0,1.0,92,0.00,,,0.00,VWS V12.07,2013-06-24 06:19:00,
2013-06-24 01:29:00,64.0,61.6,29.89,WNW,286,0.0,3.0,92,0.00,,,0.00,VWS V12.07,2013-06-24 06:29:00,
2013-06-24 01:44:00,63.9,61.8,29.89,WNW,286,0.0,0.0,93,0.00,,,0.00,VWS V12.07,2013-06-24 06:44:00,
2013-06-24 01:49:00,63.9,61.8,29.89,West,281,0.0,3.0,93,0.00,,,0.00,VWS V12.07,2013-06-24 06:49:00,
2013-06-24 01:54:00,63.9,61.8,29.89,West,281,0.0,3.0,93,0.00,,,0.00,VWS V12.07,2013-06-24 06:54:00,
2013-06-24 01:59:00,63.9,61.8,29.89,West,281,0.0,3.0,93,0.00,,,0.00,VWS V12.07,2013-06-24 06:59:00,
2013-06-24 02:04:00,63.9,61.8,29.89,West,281,0.0,0.0,93,0.00,,,0.00,VWS V12.07,2013-06-24 07:04:00,
2013-06-24 02:09:00,63.8,61.7,29.89,West,281,0.0,1.0,93,0.00,,,0.00,VWS V12.07,2013-06-24 07:09:00,
2013-06-24 02:14:00,63.8,61.7,29.89,West,281,0.0,1.0,93,0.00,,,0.00,VWS V12.07,2013-06-24 07:14:00,
2013-06-24 02:19:00,63.8,61.7,29.89,West,281,0.0,1.0,93,0.00,,,0.00,VWS V12.07,2013-06-24 07:19:00,
2013-06-24 02:34:00,63.9,62.1,29.89,West,281,0.0,0.0,94,0.00,,,0.00,VWS V12.07,2013-06-24 07:34:00,
2013-06-24 02:39:00,64.0,62.2,29.89,West,281,0.0,1.0,94,0.00,,,0.00,VWS V12.07,2013-06-24 07:39:00,
2013-06-24 02:44:00,64.0,62.2,29.88,West,281,0.0,1.0,94,0.00,,,0.00,VWS V12.07,2013-06-24 07:44:00,
2013-06-24 02:54:00,64.0,62.2,29.88,West,281,0.0,1.0,94,0.00,,,0.00,VWS V12.07,2013-06-24 07:54:00,
2013-06-24 02:59:00,64.0,62.2,29.88,West,281,0.0,1.0,94,0.00,,,0.00,VWS V12.07,2013-06-24 07:59:00,
2013-06-24 03:04:00,64.0,62.2,29.88,West,281,0.0,0.0,94,0.00,,,0.00,VWS V12.07,2013-06-24 08:04:00,
2013-06-24 03:09:00,64.0,62.2,29.88,WSW,252,0.0,0.0,94,0.00,,,0.00,VWS V12.07,2013-06-24 08:09:00,
2013-06-24 03:14:00,64.0,62.2,29.88,WSW,252,0.0,0.0,94,0.00,,,0.00,VWS V12.07,2013-06-24 08:14:00,
2013-06-24 03:24:00,63.8,62.0,29.88,WSW,252,0.0,0.0,94,0.00,,,0.00,VWS V12.07,2013-06-24 08:24:00,
2013-06-24 03:29:00,63.8,62.0,29.88,WSW,252,0.0,0.0,94,0.00,,,0.00,VWS V12.07,2013-06-24 08:29:00,
2013-06-24 03:34:00,63.7,62.0,29.88,WSW,252,0.0,0.0,94,0.00,,,0.00,VWS V12.07,2013-06-24 08:34:00,
2013-06-24 03:39:00,63.6,61.8,29.88,WSW,252,0.0,0.0,94,0.00,,,0.00,VWS V12.07,2013-06-24 08:39:00,
2013-06-24 03:44:00,63.5,61.8,29.89,WSW,252,0.0,1.0,94,0.00,,,0.00,VWS V12.07,2013-06-24 08:44:00,
2013-06-24 03:54:00,63.4,61.7,29.89,WSW,252,0.0,1.0,94,0.00,,,0.00,VWS V12.07,2013-06-24 08:54:00,
2013-06-24 03:59:00,63.3,61.5,29.89,WSW,252,0.0,1.0,94,0.00,,,0.00,VWS V12.07,2013-06-24 08:59:00,
2013-06-24 04:09:00,63.2,61.5,29.89,WSW,252,0.0,1.0,94,0.00,,,0.00,VWS V12.07,2013-06-24 09:09:00,
2013-06-24 04:19:00,63.2,61.5,29.89,WSW,252,0.0,1.0,94,0.00,,,0.00,VWS V12.07,2013-06-24 09:19:00,
2013-06-24 04:24:00,63.2,61.5,29.89,WSW,252,0.0,2.0,94,0.00,,,0.00,VWS V12.07,2013-06-24 09:24:00,
2013-06-24 04:34:00,63.2,61.8,29.90,WSW,252,0.0,0.0,95,0.00,,,0.00,VWS V12.07,2013-06-24 09:34:00,
2013-06-24 04:39:00,63.2,61.8,29.90,WSW,252,0.0,1.0,95,0.00,,,0.00,VWS V12.07,2013-06-24 09:39:00,
2013-06-24 04:44:00,63.2,61.8,29.90,WSW,252,0.0,1.0,95,0.00,,,0.00,VWS V12.07,2013-06-24 09:44:00,
2013-06-24 04:49:00,63.2,61.8,29.90,WSW,252,0.0,1.0,95,0.00,,,0.00,VWS V12.07,2013-06-24 09:49:00,
2013-06-24 04:54:00,63.2,61.8,29.90,WSW,252,0.0,1.0,95,0.00,,,0.00,VWS V12.07,2013-06-24 09:54:00,
2013-06-24 04:59:00,63.2,61.8,29.90,WSW,252,0.0,1.0,95,0.00,,,0.00,VWS V12.07,2013-06-24 09:59:00,
2013-06-24 05:04:00,63.3,61.8,29.90,WSW,252,0.0,0.0,95,0.00,,,0.00,VWS V12.07,2013-06-24 10:04:00,
2013-06-24 05:09:00,63.3,61.8,29.90,WSW,252,0.0,0.0,95,0.00,,,0.00,VWS V12.07,2013-06-24 10:09:00,
2013-06-24 05:14:00,63.2,61.8,29.90,WSW,252,0.0,0.0,95,0.00,,,0.00,VWS V12.07,2013-06-24 10:14:00,
2013-06-24 05:19:00,63.1,61.7,29.90,WSW,252,0.0,0.0,95,0.00,,,0.00,VWS V12.07,2013-06-24 10:19:00,
2013-06-24 05:24:00,63.1,61.7,29.90,WSW,252,0.0,0.0,95,0.00,,,0.00,VWS V12.07,2013-06-24 10:24:00,
2013-06-24 05:29:00,63.1,61.7,29.90,WSW,252,0.0,0.0,95,0.00,,,0.00,VWS V12.07,2013-06-24 10:29:00,
2013-06-24 05:34:00,63.1,61.7,29.90,WSW,252,0.0,0.0,95,0.00,,,0.00,VWS V12.07,2013-06-24 10:34:00,
2013-06-24 05:44:00,63.1,61.7,29.90,WSW,252,0.0,0.0,95,0.00,,,0.00,VWS V12.07,2013-06-24 10:44:00,
2013-06-24 05:49:00,63.1,61.7,29.90,WSW,252,0.0,0.0,95,0.00,,,0.00,VWS V12.07,2013-06-24 10:49:00,
2013-06-24 05:59:00,63.1,61.7,29.89,WSW,252,0.0,0.0,95,0.00,,,0.00,VWS V12.07,2013-06-24 10:59:00,
2013-06-24 06:09:00,63.2,61.8,29.90,WSW,252,0.0,0.0,95,0.00,,,0.00,VWS V12.07,2013-06-24 11:09:00,
2013-06-24 06:14:00,63.4,62.0,29.90,WSW,252,0.0,0.0,95,0.00,,,0.00,VWS V12.07,2013-06-24 11:14:00,
2013-06-24 06:19:00,63.4,62.0,29.90,WSW,252,0.0,0.0,95,0.00,,,0.00,VWS V12.07,2013-06-24 11:19:00,
2013-06-24 06:29:00,63.5,62.0,29.91,WSW,252,0.0,1.0,95,0.00,,,0.00,VWS V12.07,2013-06-24 11:29:00,
2013-06-24 06:34:00,63.6,62.2,29.91,WSW,252,0.0,0.0,95,0.00,,,0.00,VWS V12.07,2013-06-24 11:34:00,
2013-06-24 06:39:00,63.6,62.2,29.91,WSW,252,0.0,0.0,95,0.00,,,0.00,VWS V12.07,2013-06-24 11:39:00,
2013-06-24 06:49:00,63.9,62.4,29.91,WSW,252,0.0,0.0,95,0.00,,,0.00,VWS V12.07,2013-06-24 11:49:00,
2013-06-24 06:54:00,64.0,62.5,29.91,WSW,252,0.0,0.0,95,0.00,,,0.00,VWS V12.07,2013-06-24 11:54:00,
2013-06-24 07:04:00,64.4,62.9,29.92,WSW,252,0.0,0.0,95,0.00,,,0.00,VWS V12.07,2013-06-24 12:04:00,
2013-06-24 07:14:00,64.8,63.3,29.92,WSW,252,0.0,1.0,95,0.00,,,0.00,VWS V12.07,2013-06-24 12:14:00,
2013-06-24 07:19:00,64.9,63.7,29.92,West,259,0.0,1.0,96,0.00,,,0.00,VWS V12.07,2013-06-24 12:19:00,
2013-06-24 07:24:00,65.2,64.0,29.92,West,272,0.0,3.0,96,0.00,,,0.00,VWS V12.07,2013-06-24 12:24:00,
2013-06-24 07:29:00,65.4,63.9,29.92,West,272,0.0,3.0,95,0.00,,,0.00,VWS V12.07,2013-06-24 12:29:00,
2013-06-24 07:34:00,65.6,64.4,29.92,WNW,290,0.0,1.0,96,0.00,,,0.00,VWS V12.07,2013-06-24 12:34:00,
2013-06-24 07:39:00,65.8,64.6,29.92,WNW,290,0.0,1.0,96,0.00,,,0.00,VWS V12.07,2013-06-24 12:39:00,
2013-06-24 07:44:00,65.9,64.4,29.92,WNW,290,0.0,4.0,95,0.00,,,0.00,VWS V12.07,2013-06-24 12:44:00,
2013-06-24 07:49:00,66.1,64.6,29.92,WNW,290,0.0,4.0,95,0.00,,,0.00,VWS V12.07,2013-06-24 12:49:00,
2013-06-24 07:59:00,66.5,65.0,29.92,WNW,287,0.0,4.0,95,0.00,,,0.00,VWS V12.07,2013-06-24 12:59:00,
2013-06-24 08:14:00,67.1,65.6,29.92,West,266,2.0,4.0,95,0.00,,,0.00,VWS V12.07,2013-06-24 13:14:00,
2013-06-24 08:19:00,67.2,65.4,29.92,WSW,258,0.0,4.0,94,0.00,,,0.00,VWS V12.07,2013-06-24 13:19:00,
2013-06-24 08:29:00,67.7,65.6,29.93,West,261,0.0,4.0,93,0.00,,,0.00,VWS V12.07,2013-06-24 13:29:00,
2013-06-24 08:34:00,68.0,65.9,29.93,West,264,0.0,1.0,93,0.00,,,0.00,VWS V12.07,2013-06-24 13:34:00,
2013-06-24 08:44:00,68.3,65.6,29.93,West,264,0.0,1.0,91,0.00,,,0.00,VWS V12.07,2013-06-24 13:44:00,
2013-06-24 08:49:00,68.4,65.7,29.93,West,270,0.0,3.0,91,0.00,,,0.00,VWS V12.07,2013-06-24 13:49:00,
2013-06-24 08:54:00,68.6,65.2,29.93,West,270,0.0,3.0,89,0.00,,,0.00,VWS V12.07,2013-06-24 13:54:00,
2013-06-24 09:04:00,69.2,65.2,29.92,West,275,0.0,0.0,87,0.00,,,0.00,VWS V12.07,2013-06-24 14:04:00,
2013-06-24 09:09:00,69.5,66.1,29.92,West,276,0.0,2.0,89,0.00,,,0.00,VWS V12.07,2013-06-24 14:09:00,
2013-06-24 09:14:00,69.7,64.7,29.92,West,276,0.0,2.0,84,0.00,,,0.00,VWS V12.07,2013-06-24 14:14:00,
2013-06-24 09:19:00,69.9,64.5,29.92,West,276,0.0,2.0,83,0.00,,,0.00,VWS V12.07,2013-06-24 14:19:00,
2013-06-24 09:29:00,70.5,64.8,29.92,West,276,0.0,2.0,82,0.00,,,0.00,VWS V12.07,2013-06-24 14:29:00,
2013-06-24 09:34:00,70.7,65.3,29.91,West,276,1.0,1.0,83,0.00,,,0.00,VWS V12.07,2013-06-24 14:34:00,
2013-06-24 09:44:00,71.3,64.8,29.91,West,276,0.0,1.0,80,0.00,,,0.00,VWS V12.07,2013-06-24 14:44:00,
2013-06-24 09:49:00,71.6,65.5,29.92,West,276,0.0,1.0,81,0.00,,,0.00,VWS V12.07,2013-06-24 14:49:00,
2013-06-24 10:04:00,72.3,64.3,29.92,West,278,0.0,1.0,76,0.00,,,0.00,VWS V12.07,2013-06-24 15:04:00,
2013-06-24 10:09:00,72.5,63.8,29.92,WNW,295,0.0,4.0,74,0.00,,,0.00,VWS V12.07,2013-06-24 15:09:00,
2013-06-24 10:14:00,73.0,66.1,29.92,West,273,0.0,4.0,79,0.00,,,0.00,VWS V12.07,2013-06-24 15:14:00,
2013-06-24 10:24:00,73.8,64.6,29.92,NNW,343,0.0,4.0,73,0.00,,,0.00,VWS V12.07,2013-06-24 15:24:00,
2013-06-24 10:34:00,74.6,64.6,29.92,NW,317,0.0,1.0,71,0.00,,,0.00,VWS V12.07,2013-06-24 15:34:00,
2013-06-24 10:44:00,75.2,66.7,29.92,WNW,299,0.0,3.0,75,0.00,,,0.00,VWS V12.07,2013-06-24 15:44:00,
2013-06-24 10:49:00,75.1,66.2,29.92,NNW,331,0.0,3.0,74,0.00,,,0.00,VWS V12.07,2013-06-24 15:49:00,
2013-06-24 10:59:00,75.2,65.2,29.92,West,280,0.0,4.0,71,0.00,,,0.00,VWS V12.07,2013-06-24 15:59:00,
2013-06-24 11:04:00,75.5,65.0,29.92,WNW,292,0.0,2.0,70,0.00,,,0.00,VWS V12.07,2013-06-24 16:04:00,
2013-06-24 11:09:00,76.0,65.1,29.92,WNW,288,1.0,6.0,69,0.00,,,0.00,VWS V12.07,2013-06-24 16:09:00,
2013-06-24 11:14:00,76.3,65.4,29.91,WNW,284,3.0,6.0,69,0.00,,,0.00,VWS V12.07,2013-06-24 16:14:00,
2013-06-24 11:19:00,76.5,66.0,29.91,WNW,290,0.0,6.0,70,0.00,,,0.00,VWS V12.07,2013-06-24 16:19:00,
2013-06-24 11:24:00,76.6,66.1,29.91,WNW,283,0.0,6.0,70,0.00,,,0.00,VWS V12.07,2013-06-24 16:24:00,
2013-06-24 11:29:00,76.9,66.8,29.92,NW,310,0.0,6.0,71,0.00,,,0.00,VWS V12.07,2013-06-24 16:29:00,
2013-06-24 11:34:00,77.4,67.3,29.91,NNW,336,0.0,1.0,71,0.00,,,0.00,VWS V12.07,2013-06-24 16:34:00,
2013-06-24 11:49:00,78.5,66.2,29.91,NNW,332,0.0,7.0,66,0.00,,,0.00,VWS V12.07,2013-06-24 16:49:00,
2013-06-24 11:54:00,78.4,66.6,29.91,WNW,283,0.0,7.0,67,0.00,,,0.00,VWS V12.07,2013-06-24 16:54:00,
2013-06-24 11:59:00,78.4,66.6,29.91,NNW,328,0.0,7.0,67,0.00,,,0.00,VWS V12.07,2013-06-24 16:59:00,
2013-06-24 12:04:00,78.5,66.6,29.91,WNW,298,0.0,3.0,67,0.00,,,0.00,VWS V12.07,2013-06-24 17:04:00,
2013-06-24 12:09:00,78.7,66.8,29.91,NW,321,0.0,3.0,67,0.00,,,0.00,VWS V12.07,2013-06-24 17:09:00,
2013-06-24 12:14:00,78.7,66.8,29.91,NNE,29,0.0,4.0,67,0.00,,,0.00,VWS V12.07,2013-06-24 17:14:00,
2013-06-24 12:24:00,78.2,67.6,29.91,West,276,0.0,4.0,70,0.00,,,0.00,VWS V12.07,2013-06-24 17:24:00,
2013-06-24 12:34:00,78.1,67.5,29.90,NW,306,2.0,4.0,70,0.00,,,0.00,VWS V12.07,2013-06-24 17:34:00,
2013-06-24 12:39:00,78.1,66.7,29.90,West,269,1.0,4.0,68,0.00,,,0.00,VWS V12.07,2013-06-24 17:39:00,
2013-06-24 12:44:00,78.1,67.5,29.90,NNW,330,0.0,4.0,70,0.00,,,0.00,VWS V12.07,2013-06-24 17:44:00,
2013-06-24 12:54:00,78.2,66.8,29.90,WNW,286,0.0,7.0,68,0.00,,,0.00,VWS V12.07,2013-06-24 17:54:00,
2013-06-24 12:59:00,78.3,66.9,29.90,WNW,294,1.0,7.0,68,0.00,,,0.00,VWS V12.07,2013-06-24 17:59:00,
2013-06-24 13:04:00,78.1,66.7,29.90,WNW,284,0.0,4.0,68,0.00,,,0.00,VWS V12.07,2013-06-24 18:04:00,
2013-06-24 13:09:00,77.8,67.2,29.90,WNW,298,6.0,6.0,70,0.00,,,0.00,VWS V12.07,2013-06-24 18:09:00,
2013-06-24 13:14:00,77.5,67.4,29.90,NNW,329,0.0,6.0,71,0.00,,,0.00,VWS V12.07,2013-06-24 18:14:00,
2013-06-24 13:19:00,77.3,68.0,29.90,NW,324,0.0,6.0,73,0.00,,,0.00,VWS V12.07,2013-06-24 18:19:00,
2013-06-24 13:24:00,77.1,68.6,29.89,NNW,329,0.0,6.0,75,0.00,,,0.00,VWS V12.07,2013-06-24 18:24:00,
2013-06-24 13:34:00,77.5,69.0,29.88,NNE,28,0.0,2.0,75,0.00,,,0.00,VWS V12.07,2013-06-24 18:34:00,
2013-06-24 13:39:00,77.5,68.6,29.88,NW,306,2.0,4.0,74,0.00,,,0.00,VWS V12.07,2013-06-24 18:39:00,
2013-06-24 13:44:00,77.5,68.6,29.88,NNW,340,0.0,4.0,74,0.00,,,0.00,VWS V12.07,2013-06-24 18:44:00,
2013-06-24 13:54:00,77.3,69.2,29.87,NNW,340,0.0,4.0,76,0.00,,,0.00,VWS V12.07,2013-06-24 18:54:00,
2013-06-24 14:04:00,78.0,69.1,29.87,North,5,0.0,1.0,74,0.00,,,0.00,VWS V12.07,2013-06-24 19:04:00,
2013-06-24 14:09:00,78.3,68.5,29.86,NW,314,0.0,3.0,72,0.00,,,0.00,VWS V12.07,2013-06-24 19:09:00,
2013-06-24 14:19:00,78.7,69.3,29.86,West,281,0.0,4.0,73,0.00,,,0.00,VWS V12.07,2013-06-24 19:19:00,
2013-06-24 14:29:00,78.7,69.3,29.84,North,5,0.0,4.0,73,0.00,,,0.00,VWS V12.07,2013-06-24 19:29:00,
2013-06-24 14:39:00,79.1,68.5,29.85,WNW,287,0.0,3.0,70,0.00,,,0.00,VWS V12.07,2013-06-24 19:39:00,
2013-06-24 14:44:00,79.3,68.3,29.84,North,360,0.0,3.0,69,0.00,,,0.00,VWS V12.07,2013-06-24 19:44:00,
2013-06-24 14:49:00,79.5,69.3,29.84,WNW,303,0.0,4.0,71,0.00,,,0.00,VWS V12.07,2013-06-24 19:49:00,
2013-06-24 14:54:00,79.6,67.7,29.84,West,261,1.0,5.0,67,0.00,,,0.00,VWS V12.07,2013-06-24 19:54:00,
2013-06-24 15:04:00,79.9,69.2,29.83,NW,306,0.0,3.0,70,0.00,,,0.00,VWS V12.07,2013-06-24 20:04:00,
2013-06-24 15:14:00,79.8,68.7,29.83,NW,313,0.0,4.0,69,0.00,,,0.00,VWS V12.07,2013-06-24 20:14:00,
2013-06-24 15:19:00,79.7,69.1,29.83,WNW,299,0.0,5.0,70,0.00,,,0.00,VWS V12.07,2013-06-24 20:19:00,
2013-06-24 15:24:00,79.7,69.1,29.83,NNW,348,0.0,8.0,70,0.00,,,0.00,VWS V12.07,2013-06-24 20:24:00,
2013-06-24 15:29:00,79.7,69.1,29.83,NE,49,1.0,8.0,70,0.00,,,0.00,VWS V12.07,2013-06-24 20:29:00,
2013-06-24 15:34:00,79.6,69.0,29.83,North,351,0.0,1.0,70,0.00,,,0.00,VWS V12.07,2013-06-24 20:34:00,
2013-06-24 15:39:00,79.2,69.4,29.82,WSW,254,0.0,3.0,72,0.00,,,0.00,VWS V12.07,2013-06-24 20:39:00,
2013-06-24 15:49:00,78.7,69.3,29.82,NNW,342,0.0,4.0,73,0.00,,,0.00,VWS V12.07,2013-06-24 20:49:00,
2013-06-24 15:54:00,78.8,70.6,29.82,NNE,15,0.0,4.0,76,0.00,,,0.00,VWS V12.07,2013-06-24 20:54:00,
2013-06-24 15:59:00,79.1,69.7,29.82,WNW,302,2.0,10.0,73,0.00,,,0.00,VWS V12.07,2013-06-24 20:59:00,
2013-06-24 16:14:00,79.5,70.1,29.83,WSW,240,0.0,4.0,73,0.00,,,0.00,VWS V12.07,2013-06-24 21:14:00,
2013-06-24 16:19:00,79.3,69.9,29.82,NNE,16,0.0,4.0,73,0.00,,,0.00,VWS V12.07,2013-06-24 21:19:00,
2013-06-24 16:24:00,79.1,70.5,29.83,NNE,21,1.0,6.0,75,0.00,,,0.00,VWS V12.07,2013-06-24 21:24:00,
2013-06-24 16:39:00,78.7,69.7,29.82,WNW,294,3.0,7.0,74,0.00,,,0.00,VWS V12.07,2013-06-24 21:39:00,
2013-06-24 16:54:00,79.3,71.1,29.82,NNW,335,0.0,7.0,76,0.00,,,0.00,VWS V12.07,2013-06-24 21:54:00,
2013-06-24 16:59:00,79.4,70.4,29.82,NW,316,1.0,7.0,74,0.00,,,0.00,VWS V12.07,2013-06-24 21:59:00,
2013-06-24 17:04:00,79.4,70.4,29.82,WNW,287,0.0,6.0,74,0.00,,,0.00,VWS V12.07,2013-06-24 22:04:00,
2013-06-24 17:14:00,79.4,70.4,29.82,WNW,284,0.0,6.0,74,0.00,,,0.00,VWS V12.07,2013-06-24 22:14:00,
2013-06-24 17:19:00,79.3,70.3,29.82,NNW,334,1.0,6.0,74,0.00,,,0.00,VWS V12.07,2013-06-24 22:19:00,
2013-06-24 17:24:00,79.1,70.1,29.82,West,274,3.0,9.0,74,0.00,,,0.00,VWS V12.07,2013-06-24 22:24:00,
2013-06-24 17:29:00,78.8,70.2,29.82,WSW,242,0.0,9.0,75,0.00,,,0.00,VWS V12.07,2013-06-24 22:29:00,
2013-06-24 17:39:00,78.2,70.4,29.82,NW,313,0.0,3.0,77,0.00,,,0.00,VWS V12.07,2013-06-24 22:39:00,
2013-06-24 17:44:00,77.9,70.5,29.82,West,271,0.0,4.0,78,0.00,,,0.00,VWS V12.07,2013-06-24 22:44:00,
2013-06-24 17:54:00,77.3,70.3,29.82,NNW,329,3.0,4.0,79,0.00,,,0.00,VWS V12.07,2013-06-24 22:54:00,
2013-06-24 18:04:00,77.0,70.4,29.83,NNW,336,0.0,0.0,80,0.00,,,0.00,VWS V12.07,2013-06-24 23:04:00,
2013-06-24 18:09:00,76.9,69.5,29.83,WNW,295,0.0,4.0,78,0.00,,,0.00,VWS V12.07,2013-06-24 23:09:00,
2013-06-24 18:14:00,76.8,69.4,29.82,NNE,13,0.0,8.0,78,0.00,,,0.00,VWS V12.07,2013-06-24 23:14:00,
2013-06-24 18:19:00,76.8,69.8,29.83,West,261,0.0,9.0,79,0.00,,,0.00,VWS V12.07,2013-06-24 23:19:00,
2013-06-24 18:24:00,76.7,69.7,29.83,NW,323,0.0,9.0,79,0.00,,,0.00,VWS V12.07,2013-06-24 23:24:00,
2013-06-24 18:44:00,76.8,69.4,29.83,NW,313,0.0,2.0,78,0.00,,,0.00,VWS V12.07,2013-06-24 23:44:00,
2013-06-24 18:49:00,76.7,69.7,29.83,NW,311,0.0,2.0,79,0.00,,,0.00,VWS V12.07,2013-06-24 23:49:00,
2013-06-24 18:54:00,76.6,69.6,29.83,NW,304,0.0,2.0,79,0.00,,,0.00,VWS V12.07,2013-06-24 23:54:00,
2013-06-24 18:59:00,76.3,69.7,29.82,NW,304,0.0,2.0,80,0.00,,,0.00,VWS V12.07,2013-06-24 23:59:00,
2013-06-24 19:04:00,76.0,69.4,29.82,NW,304,0.0,0.0,80,0.00,,,0.00,VWS V12.07,2013-06-25 00:04:00,
2013-06-24 19:14:00,75.3,69.4,29.83,NW,304,0.0,1.0,82,0.00,,,0.00,VWS V12.07,2013-06-25 00:14:00,
2013-06-24 19:24:00,74.7,68.8,29.83,NW,304,0.0,1.0,82,0.00,,,0.00,VWS V12.07,2013-06-25 00:24:00,
2013-06-24 19:34:00,74.4,68.9,29.83,WNW,286,0.0,3.0,83,0.00,,,0.00,VWS V12.07,2013-06-25 00:34:00,
2013-06-24 19:39:00,74.2,68.7,29.82,WNW,292,0.0,3.0,83,0.00,,,0.00,VWS V12.07,2013-06-25 00:39:00,
2013-06-24 19:44:00,74.0,68.9,29.82,WNW,286,0.0,4.0,84,0.00,,,0.00,VWS V12.07,2013-06-25 00:44:00,
2013-06-24 19:49:00,73.9,68.8,29.82,West,265,0.0,6.0,84,0.00,,,0.00,VWS V12.07,2013-06-25 00:49:00,
2013-06-24 19:59:00,73.7,68.6,29.81,West,278,0.0,6.0,84,0.00,,,0.00,VWS V12.07,2013-06-25 00:59:00,
2013-06-24 20:04:00,73.6,68.5,29.82,West,277,0.0,0.0,84,0.00,,,0.00,VWS V12.07,2013-06-25 01:04:00,
2013-06-24 20:09:00,73.5,68.4,29.82,West,261,0.0,3.0,84,0.00,,,0.00,VWS V12.07,2013-06-25 01:09:00,
2013-06-24 20:14:00,73.4,68.6,29.82,West,261,0.0,3.0,85,0.00,,,0.00,VWS V12.07,2013-06-25 01:14:00,
2013-06-24 20:19:00,73.3,68.2,29.82,West,277,2.0,7.0,84,0.00,,,0.00,VWS V12.07,2013-06-25 01:19:00,
2013-06-24 20:29:00,73.1,68.0,29.82,WNW,283,0.0,7.0,84,0.00,,,0.00,VWS V12.07,2013-06-25 01:29:00,
2013-06-24 20:34:00,73.0,67.9,29.82,WNW,284,0.0,1.0,84,0.00,,,0.00,VWS V12.07,2013-06-25 01:34:00,
2013-06-24 20:39:00,72.8,67.7,29.82,WSW,246,0.0,5.0,84,0.00,,,0.00,VWS V12.07,2013-06-25 01:39:00,
2013-06-24 20:44:00,72.7,67.6,29.82,WSW,249,0.0,5.0,84,0.00,,,0.00,VWS V12.07,2013-06-25 01:44:00,
2013-06-24 20:54:00,72.4,67.6,29.82,WSW,250,0.0,5.0,85,0.00,,,0.00,VWS V12.07,2013-06-25 01:54:00,
2013-06-24 20:59:00,72.2,67.4,29.82,West,270,0.0,5.0,85,0.00,,,0.00,VWS V12.07,2013-06-25 01:59:00,
2013-06-24 21:09:00,72.0,67.2,29.82,West,270,0.0,1.0,85,0.00,,,0.00,VWS V12.07,2013-06-25 02:09:00,
2013-06-24 21:14:00,71.8,67.1,29.82,West,270,0.0,1.0,85,0.00,,,0.00,VWS V12.07,2013-06-25 02:14:00,
2013-06-24 21:24:00,71.5,66.8,29.82,West,269,0.0,1.0,85,0.00,,,0.00,VWS V12.07,2013-06-25 02:24:00,
2013-06-24 21:29:00,71.4,66.7,29.81,West,270,0.0,1.0,85,0.00,,,0.00,VWS V12.07,2013-06-25 02:29:00,
2013-06-24 21:34:00,71.3,66.6,29.81,West,270,0.0,0.0,85,0.00,,,0.00,VWS V12.07,2013-06-25 02:34:00,
2013-06-24 21:39:00,71.1,66.4,29.81,West,270,0.0,0.0,85,0.00,,,0.00,VWS V12.07,2013-06-25 02:39:00,
2013-06-24 21:44:00,71.0,66.6,29.81,West,269,0.0,0.0,86,0.00,,,0.00,VWS V12.07,2013-06-25 02:44:00,
2013-06-24 21:54:00,70.7,66.3,29.81,West,270,0.0,0.0,86,0.00,,,0.00,VWS V12.07,2013-06-25 02:54:00,
2013-06-24 21:59:00,70.6,66.6,29.82,West,270,0.0,0.0,87,0.00,,,0.00,VWS V12.07,2013-06-25 02:59:00,
2013-06-24 22:04:00,70.5,66.4,29.82,West,269,0.0,0.0,87,0.00,,,0.00,VWS V12.07,2013-06-25 03:04:00,
2013-06-24 22:09:00,70.3,66.2,29.82,West,270,0.0,0.0,87,0.00,,,0.00,VWS V12.07,2013-06-25 03:09:00,
2013-06-24 22:14:00,70.2,66.2,29.82,West,270,0.0,0.0,87,0.00,,,0.00,VWS V12.07,2013-06-25 03:14:00,
2013-06-24 22:29:00,69.9,66.2,29.82,West,270,0.0,0.0,88,0.00,,,0.00,VWS V12.07,2013-06-25 03:29:00,
2013-06-24 22:39:00,69.7,66.0,29.82,West,269,0.0,0.0,88,0.00,,,0.00,VWS V12.07,2013-06-25 03:39:00,
2013-06-24 22:44:00,69.6,66.2,29.83,West,270,0.0,0.0,89,0.00,,,0.00,VWS V12.07,2013-06-25 03:44:00,
2013-06-24 22:49:00,69.5,66.1,29.83,West,270,0.0,1.0,89,0.00,,,0.00,VWS V12.07,2013-06-25 03:49:00,
2013-06-24 23:04:00,69.3,65.9,29.83,West,269,0.0,0.0,89,0.00,,,0.00,VWS V12.07,2013-06-25 04:04:00,
2013-06-24 23:09:00,69.2,66.2,29.83,West,270,0.0,0.0,90,0.00,,,0.00,VWS V12.07,2013-06-25 04:09:00,
2013-06-24 23:14:00,69.2,66.2,29.83,West,269,0.0,0.0,90,0.00,,,0.00,VWS V12.07,2013-06-25 04:14:00,
2013-06-24 23:19:00,69.2,66.2,29.83,West,269,0.0,1.0,90,0.00,,,0.00,VWS V12.07,2013-06-25 04:19:00,
2013-06-24 23:24:00,69.1,66.1,29.83,West,270,0.0,1.0,90,0.00,,,0.00,VWS V12.07,2013-06-25 04:24:00,
2013-06-24 23:29:00,69.1,66.1,29.83,West,270,0.0,1.0,90,0.00,,,0.00,VWS V12.07,2013-06-25 04:29:00,
2013-06-24 23:34:00,69.0,65.9,29.84,West,270,0.0,0.0,90,0.00,,,0.00,VWS V12.07,2013-06-25 04:34:00,
2013-06-24 23:39:00,69.0,65.9,29.84,West,269,0.0,0.0,90,0.00,,,0.00,VWS V12.07,2013-06-25 04:39:00,
2013-06-24 23:44:00,68.9,65.5,29.84,West,270,0.0,0.0,89,0.00,,,0.00,VWS V12.07,2013-06-25 04:44:00,
2013-06-24 23:49:00,68.9,65.5,29.84,West,270,0.0,0.0,89,0.00,,,0.00,VWS V12.07,2013-06-25 04:49:00,
2013-06-24 23:54:00,68.8,65.4,29.83,West,270,0.0,0.0,89,0.00,,,0.00,VWS V12.07,2013-06-25 04:54:00,
2013-06-24 23:59:00,68.8,65.4,29.83,West,269,0.0,0.0,89,0.00,,,0.00,VWS V12.07,2013-06-25 04:59:00,